EW4363 Weather Reports


Display with metric or nautical units.
time (UTC)temp
F
wind
direction
speed
MPH
gust
MPH
rain 1hr
in
rain 24hr
in
rain mn
in
humidity
%
barometer
mb
20260903013806 72 330 0.0 0.0 0.00 0.00 0.00 79 1020.8
20260903013305 72 331 0.0 0.0 0.00 0.00 0.00 78 1020.8
20260903012805 72 330 0.0 0.0 0.00 0.00 0.00 78 1020.8
20260903012306 72 330 0.0 0.0 0.00 0.00 0.00 78 1020.8
20260903011807 73 330 0.0 0.0 0.00 0.00 0.00 77 1020.8
20260903010305 73 272 0.0 1.0 0.00 0.00 0.00 76 1020.8
20260903005804 73 270 0.0 2.0 0.00 0.00 0.00 77 1020.8
20260903005306 73 320 0.0 0.0 0.00 0.00 0.00 78 1020.9
20260903004805 72 320 0.0 0.0 0.00 0.00 0.00 78 1020.9
20260903003804 73 320 0.0 0.0 0.00 0.00 0.00 77 1021.0
20260903002804 73 320 0.0 0.0 0.00 0.00 0.00 76 1021.0
20260903002306 73 320 0.0 0.0 0.00 0.00 0.00 76 1021.0
20260903001804 73 320 0.0 0.0 0.00 0.00 0.00 76 1021.0
20260903001304 73 320 0.0 0.0 0.00 0.00 0.00 76 1021.0
20260903000304 73 320 0.0 0.0 0.00 0.00 0.00 75 1021.1
20260902235804 73 320 0.0 1.0 0.00 0.00 0.00 74 1021.0
20260902235305 74 276 0.0 0.0 0.00 0.00 0.00 75 1021.1
20260902233804 74 280 0.0 1.0 0.00 0.00 0.00 75 1021.0
20260902233304 74 280 0.0 1.0 0.00 0.00 0.00 75 1021.0
20260902232306 74 327 0.0 0.0 0.00 0.00 0.00 76 1021.0
20260902231804 74 327 0.0 0.0 0.00 0.00 0.00 77 1021.1
20260902231304 74 326 0.0 0.0 0.00 0.00 0.00 76 1021.0
20260902230804 74 326 0.0 0.0 0.00 0.00 0.00 76 1021.0
20260902230304 74 327 0.0 0.0 0.00 0.00 0.00 76 1020.9
20260902225804 74 327 0.0 1.0 0.00 0.00 0.00 76 1020.8
20260902225306 74 327 0.0 0.0 0.00 0.00 0.00 76 1020.8
20260902224805 75 327 0.0 0.0 0.00 0.00 0.00 75 1020.7
20260902224304 75 327 0.0 1.0 0.00 0.00 0.00 74 1020.7
20260902223804 76 292 0.0 1.0 0.00 0.00 0.00 73 1020.6
20260902222804 76 267 0.0 0.0 0.00 0.00 0.00 73 1020.6
20260902221804 76 267 0.0 2.0 0.00 0.00 0.00 73 1020.7
20260902221304 76 288 0.0 1.0 0.00 0.00 0.00 73 1020.7
20260902220811 76 288 0.0 1.0 0.00 0.00 0.00 73 1020.8
20260902220304 76 288 0.0 0.0 0.00 0.00 0.00 73 1020.9
20260902215804 76 288 0.0 1.0 0.00 0.00 0.00 73 1020.8
20260902215306 76 289 0.0 1.0 0.00 0.00 0.00 73 1020.9
20260902214304 76 279 0.0 0.0 0.00 0.00 0.00 73 1020.8
20260902213804 76 279 0.0 1.0 0.00 0.00 0.00 72 1020.7
20260902213303 77 284 0.0 0.0 0.00 0.00 0.00 71 1020.8
20260902212804 77 284 0.0 0.0 0.00 0.00 0.00 70 1020.7
20260902212305 78 284 0.0 0.0 0.00 0.00 0.00 70 1020.7
20260902211304 78 284 0.0 1.0 0.00 0.00 0.00 70 1020.6
20260902210805 78 269 0.0 0.0 0.00 0.00 0.00 69 1020.5
20260902210304 78 269 0.0 1.0 0.00 0.00 0.00 69 1020.6
20260902205804 78 257 0.0 0.0 0.00 0.00 0.00 69 1020.6
20260902205306 78 257 0.0 2.0 0.00 0.00 0.00 69 1020.6
20260902204804 78 268 0.0 3.0 0.00 0.00 0.00 69 1020.6
20260902204304 78 271 0.0 0.0 0.00 0.00 0.00 70 1020.6
20260902203804 78 278 0.0 0.0 0.00 0.00 0.00 69 1020.6
20260902203304 79 278 0.0 1.0 0.00 0.00 0.00 69 1020.6
20260902202804 79 278 0.0 1.0 0.00 0.00 0.00 69 1020.7
20260902202306 79 278 0.0 0.0 0.00 0.00 0.00 68 1020.6
20260902201805 79 278 0.0 1.0 0.00 0.00 0.00 68 1020.6
20260902201304 79 278 0.0 2.0 0.00 0.00 0.00 68 1020.5
20260902200804 79 278 0.0 0.0 0.00 0.00 0.00 68 1020.5
20260902200304 79 278 0.0 0.0 0.00 0.00 0.00 67 1020.5
20260902195804 79 278 0.0 1.0 0.00 0.00 0.00 67 1020.4
20260902195306 80 278 0.0 0.0 0.00 0.00 0.00 66 1020.3
20260902194804 80 278 0.0 1.0 0.00 0.00 0.00 66 1020.2
20260902194304 80 317 0.0 1.0 0.00 0.00 0.00 66 1020.2
20260902193804 80 326 0.0 1.0 0.00 0.00 0.00 65 1020.1
20260902193304 80 326 0.0 2.0 0.00 0.00 0.00 65 1020.0
20260902192306 80 328 0.0 0.0 0.00 0.00 0.00 64 1019.9
20260902191805 80 326 0.0 2.0 0.00 0.00 0.00 64 1019.8
20260902191303 80 327 1.0 3.0 0.00 0.00 0.00 64 1019.8
20260902190805 81 326 1.0 3.0 0.00 0.00 0.00 64 1019.7
20260902185804 81 326 0.0 2.0 0.00 0.00 0.00 63 1019.6
20260902185307 81 322 1.0 3.0 0.00 0.00 0.00 63 1019.5
20260902184804 81 327 1.0 2.0 0.00 0.00 0.00 62 1019.4
20260902184305 81 325 0.0 3.0 0.00 0.00 0.00 62 1019.4
20260902183804 82 324 1.0 3.0 0.00 0.00 0.00 61 1019.3
20260902183304 82 326 1.0 3.0 0.00 0.00 0.00 61 1019.3
20260902182804 82 318 2.0 3.0 0.00 0.00 0.00 60 1019.2
20260902182306 82 323 1.0 5.0 0.00 0.00 0.00 59 1019.1
20260902181803 83 325 1.0 3.0 0.00 0.00 0.00 58 1019.1
20260902181304 83 324 1.0 3.0 0.00 0.00 0.00 57 1019.1
20260902180804 83 322 2.0 6.0 0.00 0.00 0.00 57 1019.1
20260902180304 83 324 1.0 5.0 0.00 0.00 0.00 56 1019.0
20260902175805 84 331 2.0 5.0 0.00 0.00 0.00 55 1019.0
20260902174304 85 323 2.0 8.0 0.00 0.00 0.00 51 1018.8
20260902173804 86 311 2.0 7.0 0.00 0.00 0.00 50 1018.8
20260902173304 86 312 2.0 5.0 0.00 0.00 0.00 49 1018.8
20260902172805 87 321 3.0 7.0 0.00 0.00 0.00 49 1018.7
20260902171804 87 323 4.0 7.0 0.00 0.00 0.00 47 1018.6
20260902171304 87 315 3.0 7.0 0.00 0.00 0.00 46 1018.6
20260902170805 87 319 4.0 7.0 0.00 0.00 0.00 46 1018.6
20260902170304 88 323 3.0 8.0 0.00 0.00 0.00 46 1018.5
20260902165804 88 320 3.0 8.0 0.00 0.00 0.00 44 1018.5
20260902165308 88 303 3.0 6.0 0.00 0.00 0.00 44 1018.5
20260902164805 89 310 3.0 7.0 0.00 0.00 0.00 43 1018.5
20260902164304 89 315 4.0 7.0 0.00 0.00 0.00 43 1018.5
20260902163805 89 314 3.0 7.0 0.00 0.00 0.00 43 1018.5
20260902163304 89 320 3.0 6.0 0.00 0.00 0.00 42 1018.5
20260902162804 89 321 5.0 9.0 0.00 0.00 0.00 41 1018.5
20260902162307 89 322 3.0 6.0 0.00 0.00 0.00 41 1018.6
20260902161805 90 322 3.0 9.0 0.00 0.00 0.00 42 1018.5
20260902161304 90 319 4.0 8.0 0.00 0.00 0.00 41 1018.6
20260902160804 90 318 4.0 9.0 0.00 0.00 0.00 41 1018.6
20260902160305 91 320 3.0 8.0 0.00 0.00 0.00 40 1018.6
20260902155804 91 306 2.0 5.0 0.00 0.00 0.00 40 1018.6
20260902155307 91 317 2.0 6.0 0.00 0.00 0.00 39 1018.6
20260902154804 91 269 3.0 12.0 0.00 0.00 0.00 39 1018.6
20260902154304 91 315 3.0 6.0 0.00 0.00 0.00 39 1018.6
20260902153804 91 322 2.0 6.0 0.00 0.00 0.00 39 1018.6
20260902152804 91 312 3.0 10.0 0.00 0.00 0.00 40 1018.6
20260902152307 91 316 3.0 8.0 0.00 0.00 0.00 39 1018.6
20260902151804 91 322 3.0 7.0 0.00 0.00 0.00 39 1018.7
20260902151304 92 314 3.0 8.0 0.00 0.00 0.00 39 1018.7
20260902150804 92 306 3.0 7.0 0.00 0.00 0.00 39 1018.7
20260902150304 92 317 2.0 7.0 0.00 0.00 0.00 38 1018.7
20260902145805 92 316 4.0 8.0 0.00 0.00 0.00 38 1018.7
20260902144304 92 323 2.0 7.0 0.00 0.00 0.00 38 1018.8
20260902143304 92 318 3.0 7.0 0.00 0.00 0.00 37 1018.9
20260902142804 92 320 2.0 7.0 0.00 0.00 0.00 37 1019.0
20260902142306 92 319 5.0 9.0 0.00 0.00 0.00 37 1019.0
20260902141804 92 321 3.0 8.0 0.00 0.00 0.00 36 1019.0
20260902140805 92 322 4.0 8.0 0.00 0.00 0.00 35 1019.1
20260902135804 92 319 3.0 8.0 0.00 0.00 0.00 35 1019.2
20260902135306 92 312 3.0 8.0 0.00 0.00 0.00 35 1019.2
20260902134804 92 322 3.0 12.0 0.00 0.00 0.00 35 1019.2
20260902134304 92 319 4.0 10.0 0.00 0.00 0.00 35 1019.2
20260902133804 92 313 4.0 10.0 0.00 0.00 0.00 34 1019.2
20260902133304 92 325 3.0 6.0 0.00 0.00 0.00 34 1019.3
20260902132804 92 316 4.0 9.0 0.00 0.00 0.00 34 1019.3
20260902131804 92 315 4.0 9.0 0.00 0.00 0.00 33 1019.4
20260902131304 93 316 2.0 8.0 0.00 0.00 0.00 33 1019.4
20260902130804 93 316 2.0 7.0 0.00 0.00 0.00 32 1019.4
20260902130305 93 315 3.0 6.0 0.00 0.00 0.00 32 1019.4
20260902124305 93 317 5.0 9.0 0.00 0.00 0.00 31 1019.4
20260902123804 93 321 2.0 6.0 0.00 0.00 0.00 31 1019.4
20260902123304 93 311 4.0 7.0 0.00 0.00 0.00 31 1019.4
20260902122804 93 315 4.0 8.0 0.00 0.00 0.00 31 1019.4
20260902122305 93 322 3.0 6.0 0.00 0.00 0.00 31 1019.4
20260902121304 93 319 3.0 7.0 0.00 0.00 0.00 31 1019.4
20260902120804 92 313 3.0 7.0 0.00 0.00 0.00 31 1019.4
20260902120304 93 318 3.0 7.0 0.00 0.00 0.00 31 1019.5
20260902115805 93 324 4.0 8.0 0.00 0.00 0.00 31 1019.5
20260902115308 93 315 5.0 8.0 0.00 0.00 0.00 31 1019.5
20260902114305 94 315 4.0 12.0 0.00 0.00 0.00 31 1019.4
20260902113804 94 315 3.0 10.0 0.00 0.00 0.00 31 1019.5
20260902113305 94 314 4.0 8.0 0.00 0.00 0.00 31 1019.4
20260902112804 94 318 2.0 6.0 0.00 0.00 0.00 33 1019.3
20260902112306 94 286 1.0 3.0 0.00 0.00 0.00 34 1019.4
20260902111805 93 308 3.0 6.0 0.00 0.00 0.00 35 1019.4
20260902111304 93 320 3.0 7.0 0.00 0.00 0.00 34 1019.5
20260902110804 93 323 2.0 6.0 0.00 0.00 0.00 34 1019.5
20260902110304 93 325 3.0 5.0 0.00 0.00 0.00 34 1019.5
20260902105804 93 324 2.0 12.0 0.00 0.00 0.00 35 1019.5
20260902105306 93 315 1.0 12.0 0.00 0.00 0.00 36 1019.5
20260902104805 92 316 2.0 5.0 0.00 0.00 0.00 37 1019.6
20260902104304 92 318 1.0 3.0 0.00 0.00 0.00 38 1019.6
20260902103805 91 326 1.0 8.0 0.00 0.00 0.00 39 1019.6
20260902103304 91 318 1.0 7.0 0.00 0.00 0.00 40 1019.6
20260902102805 91 311 1.0 5.0 0.00 0.00 0.00 39 1019.7
20260902102307 91 314 2.0 6.0 0.00 0.00 0.00 41 1019.7
20260902101304 90 311 1.0 3.0 0.00 0.00 0.00 44 1019.7
20260902100805 90 271 1.0 3.0 0.00 0.00 0.00 45 1019.7
20260902100305 89 270 1.0 2.0 0.00 0.00 0.00 45 1019.7
20260902095805 89 314 0.0 0.0 0.00 0.00 0.00 46 1019.7
20260902095307 88 314 1.0 2.0 0.00 0.00 0.00 48 1019.7
20260902094805 87 325 1.0 5.0 0.00 0.00 0.00 51 1019.8
20260902093804 87 255 1.0 3.0 0.00 0.00 0.00 52 1019.7
20260902092305 86 265 2.0 5.0 0.00 0.00 0.00 54 1019.7
20260902091805 85 272 1.0 6.0 0.00 0.00 0.00 56 1019.7
20260902091305 84 280 2.0 5.0 0.00 0.00 0.00 57 1019.7
20260902090806 84 271 2.0 7.0 0.00 0.00 0.00 58 1019.7
20260902090305 84 273 2.0 6.0 0.00 0.00 0.00 58 1019.7
20260902085804 83 271 2.0 6.0 0.00 0.00 0.00 59 1019.8
20260902085306 83 279 1.0 5.0 0.00 0.00 0.00 59 1019.7
20260902084305 82 260 3.0 6.0 0.00 0.00 0.00 61 1019.7
20260902083805 81 271 2.0 5.0 0.00 0.00 0.00 62 1019.7
20260902083304 81 276 3.0 6.0 0.00 0.00 0.00 63 1019.7
20260902082805 80 272 3.0 7.0 0.00 0.00 0.00 63 1019.6
20260902082309 80 273 2.0 6.0 0.00 0.00 0.00 64 1019.6
20260902081805 80 278 2.0 6.0 0.00 0.00 0.00 65 1019.6
20260902080805 78 273 3.0 9.0 0.00 0.00 0.00 67 1019.5
20260902080304 78 273 4.0 8.0 0.00 0.00 0.00 67 1019.5
20260902075805 78 266 3.0 9.0 0.00 0.00 0.00 68 1019.5
20260902075306 77 276 3.0 7.0 0.00 0.00 0.00 69 1019.5
20260902074804 77 270 3.0 8.0 0.00 0.00 0.00 69 1019.5
20260902074305 76 269 3.0 9.0 0.00 0.00 0.00 70 1019.5
20260902073805 76 268 5.0 9.0 0.00 0.00 0.00 70 1019.5
20260902073304 76 274 2.0 7.0 0.00 0.00 0.00 71 1019.5
20260902072804 76 266 4.0 9.0 0.00 0.00 0.00 72 1019.6
20260902072309 75 269 3.0 12.0 0.00 0.00 0.00 72 1019.6
20260902071804 75 269 2.0 9.0 0.00 0.00 0.00 73 1019.6
20260902070805 74 270 2.0 7.0 0.00 0.00 0.00 75 1019.5
20260902070304 73 272 2.0 5.0 0.00 0.00 0.00 76 1019.5
20260902065805 72 261 1.0 5.0 0.00 0.00 0.00 77 1019.4
20260902065306 72 272 0.0 6.0 0.00 0.00 0.00 78 1019.5
20260902064805 72 274 1.0 5.0 0.00 0.00 0.00 78 1019.5
20260902064304 71 274 2.0 5.0 0.00 0.00 0.00 78 1019.4
20260902063804 71 280 1.0 5.0 0.00 0.00 0.00 79 1019.3
20260902063305 71 273 1.0 6.0 0.00 0.00 0.00 79 1019.3
20260902062804 71 272 1.0 5.0 0.00 0.00 0.00 79 1019.2
20260902062306 71 284 0.0 2.0 0.00 0.00 0.00 80 1019.2
20260902061805 70 272 1.0 3.0 0.00 0.00 0.00 80 1019.2
20260902061305 70 273 2.0 6.0 0.00 0.00 0.00 80 1019.2
20260902060805 70 275 1.0 3.0 0.00 0.00 0.00 80 1019.1
20260902060305 71 293 1.0 3.0 0.00 0.00 0.00 80 1019.1
20260902055805 71 276 2.0 6.0 0.00 0.00 0.00 80 1018.9
20260902054805 71 259 1.0 5.0 0.00 0.00 0.00 80 1018.9
20260902053804 70 274 2.0 3.0 0.00 0.00 0.00 80 1019.0
20260902052306 70 269 1.0 3.0 0.00 0.00 0.00 81 1018.9
20260902051805 70 272 1.0 3.0 0.00 0.00 0.00 81 1018.9
20260902051305 70 264 0.0 1.0 0.00 0.00 0.00 81 1018.9
20260902050805 70 267 1.0 3.0 0.00 0.00 0.00 81 1018.8
20260902050305 70 257 0.0 1.0 0.00 0.00 0.00 82 1018.7
20260902045306 70 253 1.0 3.0 0.00 0.00 0.00 82 1018.6
20260902044805 70 329 0.0 1.0 0.00 0.00 0.00 82 1018.5
20260902044305 70 279 0.0 0.0 0.00 0.00 0.00 83 1018.5
20260902043805 70 278 0.0 0.0 0.00 0.00 0.00 83 1018.6
20260902042804 70 278 0.0 1.0 0.00 0.00 0.00 83 1018.6
20260902042308 70 290 0.0 0.0 0.00 0.00 0.00 84 1018.6
20260902041805 70 290 0.0 0.0 0.00 0.00 0.00 84 1018.6
20260902041305 70 290 0.0 0.0 0.00 0.00 0.00 84 1018.6
20260902040805 70 290 0.0 1.0 0.00 0.00 0.00 84 1018.7
20260902035805 70 264 0.0 3.0 0.00 0.00 0.00 83 1018.7
20260902035305 70 289 1.0 5.0 0.00 0.00 0.00 84 1018.6
20260902034805 69 333 0.0 0.0 0.00 0.00 0.00 85 1018.7
20260902034305 70 333 0.0 0.0 0.00 0.00 0.00 85 1018.7
20260902033805 70 333 0.0 0.0 0.00 0.00 0.00 85 1018.7
20260902033305 70 333 0.0 0.0 0.00 0.00 0.00 85 1018.7
20260902032806 70 333 0.0 0.0 0.00 0.00 0.00 84 1018.8
20260902032306 70 333 0.0 1.0 0.00 0.00 0.00 84 1018.8
20260902031805 70 333 0.0 0.0 0.00 0.00 0.00 85 1018.9
20260902031306 70 333 0.0 0.0 0.00 0.00 0.00 85 1018.9
20260902030805 70 333 0.0 1.0 0.00 0.00 0.00 84 1018.8
20260902030305 70 331 0.0 0.0 0.00 0.00 0.00 84 1018.8
20260902024306 70 331 0.0 0.0 0.00 0.00 0.00 84 1018.8
20260902023805 70 331 0.0 1.0 0.00 0.00 0.00 83 1018.8
20260902023305 71 290 0.0 1.0 0.00 0.00 0.00 83 1018.7
20260902022805 71 331 0.0 0.0 0.00 0.00 0.00 82 1018.8
20260902022306 71 331 0.0 0.0 0.00 0.00 0.00 81 1018.9
20260902021305 71 265 1.0 3.0 0.00 0.00 0.00 82 1018.9
20260902020805 71 272 0.0 1.0 0.00 0.00 0.00 82 1018.8
20260902020305 71 254 0.0 2.0 0.00 0.00 0.00 82 1018.8
20260902015805 71 258 0.0 1.0 0.00 0.00 0.00 83 1018.8
20260902015306 71 258 0.0 0.0 0.00 0.00 0.00 83 1018.9
20260902014305 71 258 0.0 1.0 0.00 0.00 0.00 83 1018.8